Simultaneous Nadir Overpasses (SNOs) Predictions

Prediction of SNOs between AQUA and METOP-A Satellite Orbit:

Table of predicted SNOs for the next 14.0 days since TLE Epoch: 6/20/2020
Index Date (AQUA) Time (AQUA) Lat,Lon (AQUA) SZA (AQUA ) Date (METOP-A) Time (METOP-A) Lat,Lon (METOP-A) SZA (METOP-A ) Distance(km) Time Diff (sec)
1 06/21/2020 16:52:06 -76.32, 94.78 126.82 06/21/2020 16:51:31 -76.32, 94.88 126.81 2.68 35
2 06/21/2020 17:41:34 76.38, -97.77 53.26 06/21/2020 17:42:10 76.37, -97.61 53.23 4.21 36
3 06/24/2020 12:26:21 -76.32, 161.20 126.76 06/24/2020 12:25:53 -76.31, 161.20 126.76 1.61 28
4 06/24/2020 13:15:48 76.34, -31.21 53.27 06/24/2020 13:16:32 76.36, -31.31 53.28 3.25 44
5 06/27/2020 08:00:35 -76.34,-132.40 126.64 06/27/2020 08:00:13 -76.34,-132.34 126.63 1.83 22
6 06/27/2020 08:50:03 76.40, 35.02 53.45 06/27/2020 08:50:52 76.39, 35.15 53.41 3.73 49
7 06/30/2020 03:34:50 -76.35, -66.02 126.46 06/30/2020 03:34:35 -76.33, -66.04 126.48 3.00 15
8 06/30/2020 04:24:17 76.37, 101.56 53.57 06/30/2020 04:25:14 76.37, 101.44 53.56 3.12 57
9 07/02/2020 22:19:31 76.01,-166.11 53.35 07/02/2020 22:18:23 75.95,-168.26 53.46 58.26 68
10 07/02/2020 23:09:05 -76.37, 0.36 126.22 07/02/2020 23:08:56 -76.35, 0.41 126.24 2.60 9




NCC Satellite Simultaneous Nadir Overpasses (SNOs) Prediction Service
